Bogalusa, LA

4:02 AM CDT on September 27, 2016 (GMT -0500)
Carr Memorial

Weather History for KBXA - November, 2012

Change the Weather History Date:

Thursday, November 29, 2012

  Actual Average Record
Temperature  
Mean Temperature 48 °F -  
Max Temperature 66 °F 63 °F 81 °F (2015)
Min Temperature 31 °F 41 °F 25 °F (2013)
Degree Days  
Heating Degree Days 16    
Moisture  
Dew Point 39 °F    
Average Humidity 81    
Maximum Humidity 100    
Minimum Humidity 39    
Precipitation  
Precipitation 0.00 in - - ()
Sea Level Pressure  
Sea Level Pressure 30.33 in    
Wind  
Wind Speed 1 mph ()    
Max Wind Speed 6 mph    
Max Gust Speed -    
Visibility 9.4 miles    
Events      
Averages and records for this station are not official NWS values.
T = Trace of Precipitation, MM = Missing Value Source: Averaged Metar Reports

Daily Weather History Graph

Daily Weather History Graph

Search for Another Location

Airport or City:

Trip Planner

Search our weather history database for the weather conditions in past years. The results will help you decide how hot, cold, wet, or windy it might be!

Date:

Astronomy

Nov. 29, 2012 Rise Set
Actual Time 6:38 AM CST 4:57 PM CST
Civil Twilight 6:12 AM CST 5:23 PM CST
Nautical Twilight 5:42 AM CST 5:53 PM CST
Astronomical Twilight 5:13 AM CST 6:22 PM CST
Moon 6:00 PM CST (11/29) 7:24 AM CST (11/29)
Length of Visible Light 11h 11m
Length of Day
10h 19m
Full, 99% of the Moon is Illuminated
Nov 29
Full
Dec 6
Last Quarter
Dec 13
New
Dec 19
First Quarter
Dec 28
Full

Hourly Weather History & Observations

Time (CST) Temp. Windchill Dew Point Humidity Pressure Visibility Wind Dir Wind Speed Gust Speed Precip Events Conditions
12:15 AM 33.3 °F - 33.3 °F 100% 30.38 in 7.0 mi Calm Calm - N/A   Unknown
12:35 AM 35.1 °F - 35.1 °F 100% 30.38 in 10.0 mi Calm Calm - N/A   Unknown
12:55 AM 32.7 °F - 32.7 °F 100% 30.38 in 10.0 mi Calm Calm - N/A   Unknown
1:15 AM 34.0 °F - 34.0 °F 100% 30.37 in 10.0 mi Calm Calm - N/A   Unknown
1:35 AM 32.7 °F - 32.7 °F 100% 30.36 in 10.0 mi Calm Calm - N/A   Unknown
1:55 AM 32.0 °F - 32.0 °F 100% 30.36 in 10.0 mi Calm Calm - N/A   Unknown
2:15 AM 32.4 °F - 32.4 °F 100% 30.36 in 10.0 mi Calm Calm - N/A   Clear
2:35 AM 32.9 °F - 32.9 °F 100% 30.36 in 10.0 mi Calm Calm - N/A   Unknown
2:55 AM 32.5 °F - 32.5 °F 100% 30.36 in 10.0 mi Calm Calm - N/A   Unknown
3:15 AM 32.0 °F - 32.0 °F 100% 30.36 in 7.0 mi Calm Calm - N/A   Unknown
3:35 AM 32.4 °F - 32.4 °F 100% 30.35 in 10.0 mi Calm Calm - N/A   Unknown
3:55 AM 32.9 °F - 32.9 °F 100% 30.35 in 10.0 mi Calm Calm - N/A   Unknown
4:15 AM 32.7 °F - 32.7 °F 100% 30.34 in 10.0 mi Calm Calm - N/A   Unknown
4:35 AM 32.0 °F - 32.0 °F 100% 30.34 in 10.0 mi Calm Calm - N/A   Unknown
4:55 AM 32.0 °F - 32.0 °F 100% 30.34 in 10.0 mi Calm Calm - N/A   Unknown
5:15 AM 32.0 °F - 32.0 °F 100% 30.34 in 7.0 mi Calm Calm - N/A   Clear
5:35 AM 32.0 °F - 32.0 °F 100% 30.34 in 10.0 mi Calm Calm - N/A   Clear
5:55 AM 31.8 °F - 31.8 °F 100% 30.35 in 10.0 mi Calm Calm - N/A   Clear
6:15 AM 31.8 °F - 31.8 °F 100% 30.36 in 10.0 mi Calm Calm - N/A   Clear
6:35 AM 32.0 °F - 32.0 °F 100% 30.36 in 10.0 mi Calm Calm - N/A   Clear
6:55 AM 32.0 °F - 32.0 °F 100% 30.37 in 10.0 mi Calm Calm - N/A   Clear
7:15 AM 31.6 °F - 31.6 °F 100% 30.38 in 10.0 mi Calm Calm - N/A   Clear
7:35 AM 32.5 °F - 32.5 °F 100% 30.38 in 10.0 mi Calm Calm - N/A   Clear
7:55 AM 35.2 °F - 35.2 °F 100% 30.39 in 10.0 mi Calm Calm - N/A   Clear
8:15 AM 38.3 °F - 37.0 °F 95% 30.39 in 10.0 mi Calm Calm - N/A   Clear
8:55 AM 44.4 °F 42.9 °F 35.6 °F 71% 30.40 in 10.0 mi East 3.5 mph - N/A   Clear
9:15 AM 45.9 °F - 36.0 °F 68% 30.39 in 10.0 mi Calm Calm - N/A   Clear
9:55 AM 51.6 °F - 38.7 °F 61% 30.39 in 10.0 mi East 3.5 mph - N/A   Clear
10:15 AM 54.3 °F - 39.2 °F 57% 30.39 in 10.0 mi East 4.6 mph - N/A   Clear
10:35 AM 56.7 °F - 39.9 °F 54% 30.38 in 10.0 mi East 3.5 mph - N/A   Clear
10:55 AM 59.2 °F - 41.0 °F 51% 30.37 in 10.0 mi East 5.8 mph - N/A   Clear
11:15 AM 59.9 °F - 41.2 °F 50% 30.37 in 10.0 mi Calm Calm - N/A   Clear
11:35 AM 61.3 °F - 41.5 °F 48% 30.36 in 10.0 mi Calm Calm - N/A   Clear
11:55 AM 62.1 °F - 41.4 °F 47% 30.35 in 10.0 mi Calm Calm - N/A   Unknown
12:15 PM 62.4 °F - 42.3 °F 48% 30.34 in 10.0 mi Calm Calm - N/A   Unknown
12:35 PM 63.3 °F - 41.4 °F 45% 30.33 in 10.0 mi Calm Calm - N/A   Unknown
12:55 PM 64.0 °F - 41.2 °F 43% 30.31 in 10.0 mi SE 5.8 mph - N/A   Unknown
1:15 PM 64.4 °F - 41.4 °F 43% 30.30 in 10.0 mi SE 3.5 mph - N/A   Unknown
1:35 PM 65.8 °F - 41.0 °F 40% 30.29 in 10.0 mi Calm Calm - N/A   Unknown
1:55 PM 65.1 °F - 41.2 °F 42% 30.29 in 10.0 mi Calm Calm - N/A   Unknown
2:15 PM 65.5 °F - 40.8 °F 41% 30.28 in 10.0 mi SW 3.5 mph - N/A   Unknown
2:35 PM 66.0 °F - 40.6 °F 39% 30.27 in 10.0 mi SE 3.5 mph - N/A   Unknown
2:55 PM 65.7 °F - 40.3 °F 39% 30.26 in 10.0 mi Calm Calm - N/A   Unknown
3:15 PM 66.2 °F - 40.5 °F 39% 30.26 in 10.0 mi SSE 5.8 mph - N/A   Unknown
3:35 PM 66.2 °F - 41.0 °F 40% 30.26 in 10.0 mi SSE 4.6 mph - N/A   Unknown
3:55 PM 66.2 °F - 41.5 °F 41% 30.26 in 10.0 mi East 4.6 mph - N/A   Unknown
4:15 PM 64.8 °F - 43.2 °F 45% 30.26 in 10.0 mi Calm Calm - N/A   Clear
4:35 PM 62.6 °F - 44.2 °F 51% 30.26 in 10.0 mi ESE 4.6 mph - N/A   Clear
4:55 PM 61.0 °F - 44.6 °F 55% 30.26 in 10.0 mi Calm Calm - N/A   Clear
5:15 PM 54.9 °F - 49.3 °F 81% 30.26 in 10.0 mi Calm Calm - N/A   Clear
5:35 PM 51.4 °F - 51.4 °F 100% 30.27 in 10.0 mi Calm Calm - N/A   Clear
6:15 PM 48.4 °F - 48.4 °F 100% 30.27 in 10.0 mi Calm Calm - N/A   Unknown
6:35 PM 48.7 °F - 48.7 °F 100% 30.28 in 10.0 mi Calm Calm - N/A   Unknown
6:55 PM 48.2 °F - 48.2 °F 100% 30.29 in 10.0 mi Calm Calm - N/A   Unknown
7:15 PM 46.0 °F - 46.0 °F 100% 30.29 in 10.0 mi Calm Calm - N/A   Unknown
7:35 PM 45.9 °F - 45.9 °F 100% 30.29 in 10.0 mi Calm Calm - N/A   Unknown
7:55 PM 45.0 °F - 45.0 °F 100% 30.29 in 10.0 mi Calm Calm - N/A   Unknown
8:15 PM 44.6 °F - 44.6 °F 100% 30.30 in 7.0 mi Calm Calm - N/A   Unknown
8:35 PM 45.5 °F - 45.5 °F 100% 30.30 in 10.0 mi Calm Calm - N/A   Unknown
8:55 PM 42.8 °F - 42.8 °F 100% 30.31 in 7.0 mi Calm Calm - N/A   Unknown
9:15 PM 42.3 °F - 42.3 °F 100% 30.31 in 10.0 mi Calm Calm - N/A   Unknown
9:35 PM 41.2 °F - 41.2 °F 100% 30.31 in 10.0 mi Calm Calm - N/A   Unknown
9:55 PM 40.8 °F 38.8 °F 40.8 °F 100% 30.31 in 7.0 mi North 3.5 mph - N/A   Unknown
10:15 PM 41.0 °F - 41.0 °F 100% 30.31 in 7.0 mi Calm Calm - N/A   Unknown
11:15 PM 41.0 °F - 41.0 °F 100% 30.31 in 2.5 mi Calm Calm - N/A   Mist
11:35 PM 40.3 °F - 40.3 °F 100% 30.31 in 2.5 mi Calm Calm - N/A   Mist
11:55 PM 39.6 °F - 39.6 °F 100% 30.30 in 3.0 mi Calm Calm - N/A   Mist